Temp
15 15 16 17 17 17 17 16 14 14 14 14 13 13 13 11 11 10 11 11 10 10
14 14 14 15 16 16 16 16 15 14 13 13 13 12 12 11 10 10 10 10 8 9
12 12 13 13 14 14 14 15 14 13 13 12 12 11 10 10 9 9 8 7 6 7
12 11 11 10 10 10 11 11 11 11 11 11 10 9 9 8 8 7 6 5 6 6
11 11 11 11 10 9 9 10 10 10 10 9 9 8 7 7 6 6 5 5 5 4
9 9 10 9 9 8 8 7 8 8 7 7 7 6 6 6 5 4 4 3 3 2
7 7 7 7 6 6 6 6 6 5 5 5 5 4 4 4 3 2 2 2 2 2
5 5 4 4 3 3 3 4 4 3 2 2 2 2 2 2 2 2 2 2 2 1
3 2 2 1 2 2 2 2 3 2 2 2 1 1 2 3 3 2 1 0 -0 -1
2 1 1 0 1 1 1 1 1 1 1 1 1 1 0 2 1 0 -0 -1 -1 -2
0 0 -0 -0 -0 0 0 0 0 0 0 0 0 -0 1 1 -0 -1 -2 -2 -2 -2
-0 -0 -0 -1 -1 -1 -0 -0 -0 -0 -1 -1 -2 -2 -1 -1 -2 -3 -3 -2 -2 -2
-1 -1 -1 -1 -1 -1 -1 -1 -1 -1 -2 -2 -3 -3 -1 -1 -2 -2 -2 -2 -3 -3
-1 -0 -1 -1 -1 -1 -1 -1 -2 -2 -2 -2 -2 -2 -2 -1 -1 -1 -1 -2 -2 -3
Height
750 749 748 748 748 748 749 750 750 750 751 752 755 758 761 763 765 768 772 775 779 781
748 747 745 745 744 744 744 744 746 746 745 747 749 751 754 755 759 762 767 771 774 776
746 744 743 741 741 741 740 740 740 740 741 742 744 746 749 752 754 757 762 765 769 774
745 743 740 738 737 736 736 736 737 737 737 738 740 741 743 747 750 755 757 760 763 768
746 743 741 739 735 735 735 731 733 735 735 736 737 739 741 743 747 750 755 758 763 767
745 743 741 739 737 736 733 733 731 732 735 736 737 739 741 742 745 750 755 759 762 769
747 744 742 739 736 738 734 734 734 734 738 738 738 740 742 744 746 751 757 761 766 771
749 746 743 742 738 736 736 735 736 738 741 741 742 742 744 747 749 754 760 766 770 772
749 748 747 746 742 739 740 739 737 743 743 742 746 748 747 753 754 758 761 766 770 771
752 750 749 748 746 746 746 746 746 748 749 749 751 753 753 755 760 762 767 769 771 776
754 753 751 751 752 752 752 752 748 755 755 758 759 757 758 759 763 769 770 771 776 779
757 756 755 755 755 757 757 759 761 763 764 766 766 765 765 766 769 770 773 775 777 779
763 761 760 761 762 763 764 766 768 770 771 771 769 769 770 771 773 776 778 779 781 781
768 767 767 768 769 770 771 773 774 776 777 776 776 777 778 778 780 781 781 782 781 781
Wind_Speed
8 11 15 20 23 22 22 21 20 24 32 34 32 29 28 28 31 33 36 32 28 29
9 9 11 13 15 18 19 20 20 19 22 27 28 30 29 28 27 26 27 27 27 30
8 8 9 9 11 13 15 15 17 17 18 21 24 25 26 25 23 24 21 20 22 20
10 9 8 9 10 11 12 10 12 13 14 15 17 20 24 23 22 22 20 21 24 23
11 10 10 9 7 8 10 8 8 10 11 12 15 15 19 23 23 24 23 22 24 24
12 12 10 8 8 7 4 4 4 5 6 8 10 13 15 19 20 20 22 23 23 23
12 11 10 8 7 6 4 4 6 5 3 5 8 11 15 19 22 23 24 22 20 19
11 10 9 9 8 7 7 7 7 7 8 10 12 15 18 21 24 26 24 21 18 16
9 10 11 10 11 11 9 9 11 10 11 14 14 14 17 23 25 24 23 21 17 14
9 11 12 12 14 15 16 16 19 19 19 21 21 19 19 21 21 19 17 16 14 9
10 11 13 15 16 17 18 20 20 21 21 21 19 19 16 18 18 17 14 11 9 6
11 14 16 18 18 18 20 21 23 21 22 21 19 18 18 17 14 14 11 8 6 5
14 16 19 19 21 22 23 23 21 19 17 15 18 16 15 12 10 8 6 5 3 1
17 18 19 19 20 21 21 20 19 16 12 11 10 9 8 7 5 4 3 3 2 1
Wind_Direction
277 262 254 252 252 254 255 251 251 239 232 232 229 228 222 221 220 217 219 215 213 216
296 285 274 269 262 255 253 252 249 243 238 234 230 225 218 216 214 213 215 217 216 218
314 311 304 293 278 268 264 256 249 243 236 230 225 223 215 215 211 206 207 204 204 207
335 336 327 314 304 285 270 264 259 247 236 224 217 216 212 211 204 196 195 199 195 179
330 330 328 322 312 305 288 255 261 255 240 226 214 208 201 202 197 196 188 178 172 163
348 339 339 341 343 333 312 298 244 236 240 217 205 197 190 192 187 181 180 171 164 162
2 2 358 5 22 5 39 62 48 75 118 142 141 154 156 163 153 152 147 155 154 153
13 13 19 14 32 50 52 73 97 90 107 109 126 144 148 149 149 143 139 142 148 151
35 37 35 37 48 60 73 92 100 119 130 125 124 136 145 144 140 144 145 140 138 142
47 55 54 54 66 75 78 89 99 104 104 109 116 117 123 139 136 133 136 138 138 141
59 65 72 77 83 91 100 99 95 100 108 99 100 109 126 128 128 128 116 106 113 132
70 80 85 87 92 99 103 104 103 105 103 102 95 100 108 112 106 97 109 119 121 124
82 90 95 99 103 106 107 105 103 98 96 91 87 78 80 81 94 111 120 131 142 216
89 95 100 106 111 111 110 111 107 101 88 85 93 101 91 87 102 119 145 176 213 238